Wind_Speed
43 43 43 42 41 42 41 39 40 42 41 37 39 41 40 36 37 39 41 43 44 45 45 45 46 49 50 49 52 53 51 47 41 44 41 38 37 38 42 41 43 41 37 37 40
37 40 40 39 42 39 36 35 32 29 32 34 34 30 32 33 38 40 41 41 43 48 46 45 48 47 51 53 52 53 54 48 44 42 44 43 41 41 41 42 40 38 37 38 42
33 31 29 34 36 30 32 34 32 29 31 30 33 32 36 39 41 45 40 41 45 47 48 48 49 52 50 51 52 53 55 49 43 43 46 45 42 42 42 43 39 41 41 41 39
36 32 29 31 30 33 36 37 35 39 39 43 33 45 39 44 42 41 40 38 43 48 50 51 51 53 51 49 50 51 51 50 45 45 48 45 43 41 43 41 41 40 41 42 43
44 41 40 40 39 39 42 43 44 41 45 43 40 47 47 46 40 38 38 41 43 47 50 52 50 55 54 50 46 46 49 49 46 47 49 47 46 45 43 43 43 41 44 46 47
45 41 49 51 48 45 41 41 43 43 45 47 45 50 50 51 44 40 43 43 44 48 45 46 52 55 54 56 50 48 49 48 47 48 49 48 48 44 46 41 44 47 47 46 48
57 48 45 54 54 53 58 58 50 41 45 48 49 52 57 58 47 45 50 52 54 52 50 54 46 48 51 54 50 48 47 46 48 50 49 52 49 45 44 46 48 48 47 49 54
59 65 65 62 55 54 55 63 65 55 55 48 57 55 55 62 58 56 54 56 59 54 51 52 52 43 43 44 39 37 41 46 48 54 54 52 46 45 46 51 53 53 54 57 58
66 64 68 74 67 57 65 58 65 65 66 63 59 61 62 62 62 61 59 57 55 58 54 52 58 54 38 36 30 36 39 47 49 51 53 50 49 50 52 54 58 62 63 61 61
76 71 68 71 78 70 65 69 63 67 65 73 70 63 66 69 66 64 61 62 60 60 54 57 54 58 55 43 37 39 48 48 51 50 51 51 54 57 55 57 63 62 63 66 64
81 72 76 75 70 76 77 73 67 68 74 75 73 74 69 71 68 65 62 63 69 61 60 55 61 61 56 51 44 45 46 54 60 60 60 59 59 60 59 65 63 63 67 68 67
87 80 82 78 79 76 78 81 80 75 73 73 80 78 79 76 74 68 72 78 70 67 65 64 62 68 62 58 58 54 55 56 58 59 65 67 64 64 66 68 67 69 69 68 66
103 93 88 94 87 86 91 91 90 90 86 78 80 77 78 76 76 87 87 82 84 75 73 71 67 72 70 67 65 65 65 65 60 62 63 64 65 69 69 70 73 74 76 75 73
106 107 101 100 101 98 99 98 102 101 96 85 87 81 87 88 86 95 94 91 87 86 83 77 75 75 76 73 72 69 71 69 66 67 68 68 69 71 73 77 79 81 79 77 77
113 114 114 108 110 109 108 112 115 109 108 98 100 94 96 103 104 98 97 91 89 90 90 84 82 79 81 80 81 77 78 80 78 77 72 73 74 71 75 74 77 78 76 74 74
123 121 119 121 124 126 121 124 124 123 115 112 103 103 110 109 109 101 99 101 98 98 92 92 92 86 87 90 88 87 88 86 85 83 78 80 79 71 73 70 75 76 76 75 77
126 125 126 127 130 130 128 126 126 120 113 115 112 112 113 111 110 107 103 102 100 103 100 97 96 96 96 95 97 94 92 92 89 88 82 83 79 72 77 75 74 74 75 77 79
135 135 135 134 133 131 127 126 126 111 111 114 110 110 114 112 110 108 109 106 105 107 109 104 99 104 101 100 101 94 94 94 94 92 89 86 78 77 76 81 81 87 87 85 84
142 139 134 133 130 128 129 129 119 108 111 112 113 111 112 113 116 112 111 112 111 111 108 107 107 107 108 106 105 101 99 98 97 93 93 87 80 82 79 81 83 85 87 90 92
139 136 133 133 131 132 132 128 118 112 112 113 114 116 111 112 113 116 116 111 117 113 116 114 111 108 109 108 105 105 102 100 96 94 93 83 83 82 85 84 85 87 89 90 91
135 134 129 134 134 134 129 121 120 117 117 118 116 117 116 115 114 116 111 115 115 114 115 116 117 108 106 106 105 106 102 101 101 98 97 88 82 84 85 85 86 89 91 92 91
122 124 121 128 128 127 122 119 121 119 117 117 117 116 118 120 117 119 117 115 112 116 115 112 111 109 110 108 103 103 100 100 102 98 98 92 81 87 88 86 89 93 96 96 96
112 112 110 113 115 112 111 113 115 112 114 112 112 114 116 117 116 113 113 116 114 115 118 116 111 111 109 107 106 105 102 104 99 98 98 100 84 88 89 86 90 95 96 95 95
100 106 99 97 102 102 100 102 105 103 105 104 105 106 109 109 109 109 114 113 114 117 118 118 109 107 107 106 105 104 102 98 99 98 98 102 92 88 91 92 94 95 94 94 95
86 92 94 85 89 94 96 93 94 95 97 97 99 101 102 99 102 105 110 112 113 115 115 113 109 110 103 102 106 102 97 93 100 95 102 98 101 86 96 96 92 93 94 92 95
76 78 78 81 82 84 87 86 88 89 90 90 94 94 95 92 95 94 96 98 102 106 109 111 106 107 101 104 107 99 91 94 96 96 103 100 98 99 101 96 91 93 93 94 96
65 74 76 75 73 74 74 79 82 85 84 83 90 90 88 91 90 90 89 91 93 97 102 104 106 108 103 105 104 98 86 95 98 98 102 100 92 98 99 95 93 96 96 97 98
Wind_Direction
263 261 259 255 260 263 261 261 260 257 258 258 255 260 267 266 265 266 266 277 282 274 280 275 273 268 267 268 269 271 277 276 270 271 264 260 274 280 277 275 277 276 282 289 297
262 265 258 258 254 256 261 258 255 253 256 259 258 263 276 281 277 280 283 278 280 274 274 273 269 267 267 269 269 272 275 274 272 271 263 263 275 274 275 274 278 276 282 289 296
269 262 266 262 255 262 262 259 252 251 252 260 260 271 275 286 290 291 289 287 280 275 270 268 272 266 267 267 267 269 273 274 270 268 269 265 271 273 274 271 271 278 282 289 296
270 270 267 264 253 258 259 263 260 273 285 274 265 272 276 289 289 292 288 283 274 270 271 273 272 268 266 267 267 264 268 272 268 266 267 264 269 272 271 266 273 278 284 290 292
269 269 268 274 275 270 274 274 267 277 280 285 279 283 291 292 292 290 283 283 278 272 273 272 276 272 266 264 263 263 267 270 267 265 263 268 271 274 263 263 267 273 285 293 298
273 274 272 270 275 272 277 281 278 280 281 284 283 288 290 287 292 288 288 289 282 280 284 279 276 273 271 268 263 264 266 267 264 265 262 271 273 268 263 263 264 277 286 292 298
269 270 271 273 270 272 273 278 282 289 287 283 281 287 289 286 285 287 290 290 289 286 280 278 279 276 269 267 265 266 265 263 263 262 264 268 267 262 264 263 270 281 288 291 299
267 267 267 268 268 271 272 270 276 276 278 284 280 280 284 285 283 282 283 287 285 289 279 277 276 279 272 265 265 267 267 266 268 264 262 264 261 266 268 272 281 284 287 292 295
274 268 260 263 267 269 272 271 267 269 272 273 274 274 273 280 277 279 279 278 285 281 284 276 279 278 281 261 266 271 271 272 269 270 267 271 273 275 278 282 282 286 288 289 292
274 271 262 266 270 264 268 269 274 263 270 269 273 271 272 273 274 270 277 273 276 279 280 280 277 277 274 279 269 275 269 270 274 274 270 271 273 277 281 280 285 285 289 290 289
274 270 261 267 268 262 260 264 275 268 265 269 268 265 268 266 273 273 268 273 272 269 270 276 276 272 272 277 271 270 268 268 268 272 274 273 274 278 277 279 282 282 283 281 282
275 274 269 261 267 268 266 269 268 267 270 267 264 268 266 266 269 274 276 276 275 266 267 265 270 266 267 272 275 274 259 265 271 275 270 268 268 273 276 278 278 276 276 277 280
272 275 271 272 268 269 270 270 270 274 273 268 270 261 265 265 268 274 277 276 272 274 265 262 263 269 264 263 267 270 272 271 271 268 269 272 276 277 276 277 277 272 273 276 281
271 271 270 266 269 269 267 266 270 270 270 261 269 264 261 266 267 271 272 274 272 269 268 265 262 262 263 264 265 268 271 270 268 269 266 265 266 272 275 275 274 273 276 278 281
270 270 270 265 266 265 264 267 269 266 265 266 269 267 264 266 269 269 270 270 265 265 268 265 262 262 262 263 266 266 268 270 269 269 266 268 268 271 267 269 271 273 275 275 277
269 269 265 267 268 270 269 268 267 266 266 268 265 263 265 265 266 266 265 267 265 263 262 266 263 261 262 262 263 265 271 269 269 268 272 270 270 271 267 268 271 271 272 273 274
269 269 268 267 269 269 269 267 264 265 268 267 265 263 263 264 265 263 262 263 262 261 261 261 262 263 264 266 269 268 269 269 268 270 269 264 264 267 268 261 261 266 267 268 270
267 268 267 266 268 267 266 264 264 266 265 266 261 261 260 263 260 258 259 260 261 259 259 260 261 262 264 264 267 268 270 270 270 270 268 268 269 267 269 268 268 267 268 269 271
268 268 267 266 265 264 263 263 266 263 261 261 260 259 257 258 257 257 258 257 258 257 259 262 261 262 264 265 265 266 266 263 266 267 269 270 270 268 270 273 273 272 270 271 270
266 265 265 265 264 263 263 264 265 262 259 259 258 259 259 257 256 256 257 257 257 256 257 257 258 262 262 265 264 265 265 265 266 267 267 267 268 270 269 273 274 273 273 272 272
264 264 263 263 262 262 264 264 262 260 259 259 258 259 258 258 257 256 256 257 256 256 257 257 256 258 261 262 263 265 266 266 266 266 268 268 267 268 270 270 272 272 271 271 271
263 263 262 262 262 262 262 263 261 261 260 259 258 258 258 258 258 258 259 256 256 255 256 257 256 255 257 259 262 262 264 265 266 266 265 267 266 269 268 268 268 270 272 274 276
261 262 261 261 261 261 261 261 261 261 261 259 258 257 257 257 257 256 255 255 255 254 253 255 254 254 257 260 260 260 261 263 264 264 266 266 266 265 266 268 267 268 269 271 273
259 260 260 258 261 261 260 259 259 259 259 258 258 256 256 255 254 253 253 252 253 254 255 257 256 255 254 258 257 259 259 261 262 261 264 266 267 263 264 264 263 265 268 271 272
257 258 258 257 257 257 257 257 257 259 258 256 256 257 257 254 253 252 251 251 251 253 255 255 255 256 254 254 255 257 258 259 260 260 263 266 268 267 269 265 265 267 268 269 270
257 257 255 254 253 254 255 257 257 257 256 255 255 254 255 255 254 252 252 251 252 253 253 253 252 252 252 253 255 256 255 255 256 257 258 259 264 267 265 267 267 268 269 269 270
256 255 252 251 251 253 253 253 253 253 253 252 252 253 252 253 253 252 251 249 249 249 251 252 251 250 250 252 253 254 252 252 254 258 260 261 262 262 263 265 266 267 267 268 270
Height
10757 10760 10760 10762 10764 10765 10765 10765 10766 10768 10771 10772 10774 10776 10778 10778 10778 10780 10780 10780 10780 10781 10780 10780 10780 10779 10780 10780 10779 10779 10778 10778 10778 10776 10778 10777 10776 10776 10774 10772 10770 10769 10766 10763 10759
10749 10750 10751 10752 10754 10755 10757 10758 10758 10761 10762 10763 10765 10767 10768 10769 10769 10770 10769 10769 10769 10769 10768 10769 10769 10769 10768 10769 10768 10768 10767 10767 10768 10768 10768 10768 10768 10768 10766 10764 10762 10761 10758 10755 10752
10740 10741 10742 10744 10746 10747 10749 10750 10752 10753 10755 10756 10757 10758 10759 10759 10760 10758 10759 10759 10757 10757 10757 10757 10757 10757 10757 10756 10757 10757 10756 10756 10757 10759 10759 10760 10760 10758 10758 10756 10755 10752 10750 10748 10745
10731 10733 10734 10737 10737 10738 10739 10739 10740 10743 10746 10746 10748 10748 10749 10748 10749 10748 10748 10747 10747 10746 10747 10746 10746 10746 10745 10745 10743 10744 10744 10745 10747 10748 10749 10750 10751 10751 10749 10749 10747 10744 10741 10740 10737
10719 10721 10721 10724 10728 10728 10728 10730 10730 10732 10733 10735 10737 10736 10736 10735 10737 10738 10737 10738 10737 10736 10736 10735 10735 10735 10733 10733 10732 10732 10732 10733 10735 10736 10738 10739 10740 10739 10739 10740 10739 10736 10733 10729 10726
10708 10708 10710 10711 10713 10715 10716 10717 10718 10720 10722 10722 10723 10723 10722 10721 10727 10727 10727 10728 10727 10726 10725 10724 10724 10723 10722 10722 10721 10720 10720 10721 10723 10726 10727 10728 10729 10728 10727 10730 10728 10725 10722 10719 10716
10695 10697 10697 10699 10700 10702 10703 10704 10706 10707 10709 10710 10711 10711 10710 10707 10714 10714 10715 10716 10717 10715 10714 10713 10712 10710 10709 10709 10709 10709 10708 10709 10711 10714 10717 10716 10718 10715 10719 10720 10717 10714 10711 10709 10705
10680 10682 10683 10686 10687 10689 10691 10690 10694 10694 10697 10698 10698 10699 10698 10696 10700 10700 10703 10704 10705 10704 10702 10701 10700 10700 10697 10698 10698 10699 10699 10699 10702 10704 10706 10706 10706 10704 10706 10708 10707 10703 10701 10698 10695
10662 10664 10666 10668 10671 10673 10675 10677 10680 10682 10683 10684 10685 10686 10685 10685 10687 10689 10689 10690 10691 10691 10690 10689 10689 10688 10688 10689 10688 10689 10690 10689 10692 10693 10695 10696 10696 10696 10698 10697 10695 10692 10689 10687 10685
10642 10645 10646 10650 10652 10653 10655 10659 10663 10666 10669 10669 10671 10671 10671 10668 10671 10673 10675 10674 10675 10677 10677 10677 10678 10675 10676 10680 10678 10678 10681 10681 10680 10684 10687 10687 10686 10686 10686 10685 10683 10679 10676 10673 10673
10620 10622 10625 10628 10631 10632 10636 10638 10642 10647 10651 10652 10656 10656 10654 10653 10656 10655 10655 10657 10659 10660 10662 10663 10666 10658 10666 10667 10668 10668 10668 10669 10668 10674 10676 10675 10676 10675 10675 10674 10671 10669 10666 10661 10658
10598 10601 10603 10605 10607 10609 10611 10614 10619 10625 10634 10633 10635 10641 10634 10639 10641 10636 10635 10638 10641 10641 10646 10648 10651 10644 10650 10652 10652 10654 10656 10653 10655 10660 10663 10660 10664 10662 10663 10661 10660 10657 10654 10650 10645
10574 10577 10579 10580 10584 10586 10588 10592 10595 10600 10611 10617 10617 10624 10616 10623 10624 10615 10618 10617 10621 10623 10625 10629 10633 10628 10632 10634 10636 10637 10640 10639 10641 10644 10647 10649 10649 10650 10651 10650 10647 10642 10639 10635 10630
10549 10552 10555 10557 10561 10561 10563 10567 10572 10576 10584 10602 10595 10603 10601 10599 10605 10597 10595 10599 10603 10602 10602 10609 10611 10612 10611 10616 10615 10622 10624 10623 10624 10626 10629 10636 10641 10639 10638 10636 10632 10626 10622 10621 10618
10519 10523 10527 10532 10532 10534 10534 10538 10542 10550 10555 10579 10583 10582 10576 10576 10577 10578 10570 10576 10582 10578 10581 10588 10591 10592 10595 10593 10595 10601 10606 10604 10606 10607 10613 10618 10621 10625 10624 10617 10612 10612 10608 10605 10602
10488 10493 10494 10497 10500 10502 10504 10505 10510 10515 10539 10547 10555 10555 10553 10548 10547 10550 10552 10550 10555 10556 10563 10564 10564 10571 10572 10572 10573 10579 10581 10584 10584 10586 10600 10592 10598 10616 10605 10606 10595 10594 10592 10591 10587
10448 10454 10459 10461 10464 10465 10466 10469 10470 10493 10516 10509 10518 10522 10521 10520 10521 10523 10527 10527 10526 10528 10538 10540 10546 10546 10549 10550 10550 10554 10557 10559 10565 10568 10578 10570 10581 10597 10590 10589 10581 10576 10574 10573 10571
10413 10416 10422 10426 10426 10427 10428 10429 10436 10485 10479 10469 10482 10484 10486 10489 10492 10497 10501 10502 10502 10501 10508 10516 10522 10523 10528 10528 10527 10536 10535 10536 10537 10538 10548 10555 10571 10567 10569 10568 10563 10560 10556 10552 10550
10373 10378 10385 10383 10386 10387 10387 10392 10426 10444 10442 10439 10438 10445 10455 10457 10461 10466 10471 10475 10474 10478 10481 10488 10494 10499 10503 10503 10505 10515 10517 10511 10512 10519 10521 10534 10547 10546 10548 10545 10543 10539 10536 10533 10529
10330 10340 10349 10343 10345 10345 10347 10368 10397 10404 10405 10400 10402 10407 10419 10424 10427 10433 10439 10445 10440 10450 10452 10459 10469 10473 10477 10480 10481 10486 10489 10488 10491 10495 10494 10518 10521 10526 10525 10525 10521 10518 10513 10510 10510
10291 10299 10313 10305 10304 10305 10322 10347 10349 10358 10366 10366 10377 10375 10385 10387 10393 10399 10410 10407 10411 10422 10421 10427 10439 10452 10451 10457 10458 10460 10469 10469 10464 10470 10472 10491 10505 10504 10501 10502 10500 10495 10490 10488 10489
10256 10258 10276 10266 10267 10276 10294 10309 10307 10317 10326 10332 10339 10347 10351 10350 10359 10365 10376 10374 10385 10387 10389 10397 10410 10422 10424 10431 10436 10436 10446 10443 10440 10453 10450 10463 10492 10479 10477 10478 10475 10472 10469 10469 10471
10219 10221 10234 10236 10235 10249 10263 10269 10269 10282 10283 10295 10303 10306 10312 10319 10326 10336 10338 10341 10348 10350 10357 10365 10379 10393 10404 10408 10409 10414 10418 10421 10420 10427 10435 10430 10467 10455 10451 10455 10450 10446 10446 10450 10452
10191 10186 10196 10215 10214 10219 10232 10236 10235 10246 10251 10258 10263 10268 10274 10284 10295 10306 10299 10312 10316 10319 10324 10336 10358 10368 10378 10381 10382 10384 10394 10401 10397 10402 10410 10407 10429 10435 10428 10426 10423 10424 10428 10428 10429
10165 10165 10167 10186 10195 10190 10193 10204 10208 10218 10223 10229 10231 10234 10241 10256 10259 10263 10271 10281 10288 10291 10300 10309 10329 10329 10352 10358 10347 10360 10374 10380 10375 10383 10376 10393 10384 10417 10394 10395 10402 10404 10405 10407 10404
10137 10143 10149 10152 10162 10166 10169 10181 10186 10188 10192 10200 10198 10208 10215 10226 10225 10238 10246 10257 10264 10270 10273 10281 10297 10302 10324 10322 10320 10335 10354 10356 10352 10357 10353 10365 10373 10377 10366 10374 10380 10380 10380 10381 10379
10117 10116 10121 10130 10137 10143 10152 10154 10155 10157 10166 10177 10172 10181 10192 10196 10204 10210 10218 10225 10237 10242 10247 10254 10264 10275 10294 10291 10297 10311 10338 10326 10328 10333 10328 10337 10358 10345 10345 10352 10356 10353 10355 10355 10356